[[{"header":{"parameterUnit":"m.s-1","parameterCategory":1,"la1":30.2991,"la2":30.254,"lo1":-89.0895,"lo2":-89.0444,"dy":0.0017,"dx":0.0017,"nx":28,"ny":28,"refTime":"2026-02-15T03:00:00:Z","depth":0,"parameterNumber":2,"parameterNumberName":"U-component_of_WINDS"},"data":[0,0,0,0,0,0,0,0,0,0,0,0,0,0,0,0,0,0,0,0,0,0,0,0,0,0,0,0,0,0,0,0,0,0,0,0,0,0,0,0,0,0,0,0,0,0,0,0,0,0,0,0,0,0,0,0,0,0,-4.4374,-4.4374,0,-4.4451,-4.4452,-4.4452,-4.4442,-4.4441,-4.444,-4.4439,-4.4516,-4.4519,-4.4522,0,0,0,0,0,0,0,0,0,0,0,0,0,-4.4216,-4.4219,-4.4373,-4.4374,-4.4375,-4.4451,-4.4452,-4.4453,-4.4443,-4.4441,-4.444,-4.4438,-4.4515,-4.4518,-4.4522,0,0,0,0,0,0,0,0,0,0,0,0,0,-4.4288,-4.422,-4.4373,-4.438,-4.4381,-4.445,-4.4452,-4.4453,-4.4443,-4.4441,-4.4439,-4.4437,-4.4513,-4.4518,-4.4523,-4.459,0,0,-4.4537,-4.454,0,0,0,0,0,0,0,0,-4.4284,-4.4294,-4.4378,-4.4379,-4.4381,-4.4435,-4.4424,-4.4499,-4.4443,-4.4419,-4.4439,-4.4436,-4.449,-4.4497,-4.4515,-4.4594,-4.4597,-4.4538,-4.4541,-4.4543,-4.4544,0,0,0,0,0,0,0,-4.4279,-4.429,-4.4404,-4.4379,-4.4381,-4.4378,-4.4386,-4.4438,-4.4464,-4.4421,-4.4421,-4.443,-4.4491,-4.4511,-4.4517,-4.4598,-4.4538,-4.4542,-4.4545,-4.4547,-4.4736,-4.4738,0,0,0,0,0,0,-4.4273,-4.4286,-4.4402,-4.4406,-4.4327,-4.4382,-4.4391,-4.442,-4.4464,-4.4469,-4.4432,-4.4429,-4.4503,-4.4511,-4.452,-4.4601,-4.4543,-4.4547,-4.455,-4.4734,-4.4737,-4.4739,0,0,0,0,0,0,-4.4269,-4.4283,-4.4398,-4.4346,-4.4361,-4.4387,-4.4419,-4.4422,-4.4442,-4.4472,-4.4476,-4.4447,-4.4502,-4.4513,-4.4573,-4.4604,-4.455,-4.4554,-4.4732,-4.4735,-4.4738,-4.4765,0,0,0,0,0,0,-4.4265,-4.4282,-4.4308,-4.4347,-4.4364,-4.4451,-4.4421,-4.4425,-4.4451,-4.4448,-4.4488,-4.4492,-4.4502,-4.4566,-4.4578,-4.4609,-4.4558,-4.4729,-4.4733,-4.4737,-4.4761,-4.4768,-4.4775,0,0,0,0,0,-4.4259,-4.4312,-4.4309,-4.4323,-4.4397,-4.4452,-4.4462,-4.4472,-4.4453,-4.4479,-4.4499,-4.4491,-4.4599,-4.4572,-4.4585,-4.4619,-4.4727,-4.4732,-4.4737,-4.4758,-4.4767,-4.4775,0,0,0,0,0,0,-4.4274,-4.4317,-4.4314,-4.4382,-4.4414,-4.4451,-4.4484,-4.4481,-4.4519,-4.4515,-4.4526,-4.4535,-4.4595,-4.4613,-4.4583,-4.4687,-4.466,-4.4668,-4.4672,-4.4681,-4.4687,-4.4681,-4.4562,0,0,0,0,0,-4.4286,-4.4328,-4.4363,-4.4419,-4.4435,-4.4457,-4.4481,-4.4487,-4.452,-4.4533,-4.4557,-4.4589,-4.463,-4.4657,-4.4697,-4.4765,-4.4773,-4.4795,-4.4801,-4.4807,-4.4812,-4.4849,-4.4859,-4.4755,-4.4755,-4.4755,0,0,-4.4309,-4.4338,-4.4363,-4.4422,-4.4448,-4.4491,-4.4468,-4.4514,-4.4546,-4.454,-4.4598,-4.4617,-4.4654,-4.4718,-4.4747,-4.4735,-4.4844,-4.4813,-4.4817,-4.482,-4.4855,-4.4865,-4.4874,-4.4758,-4.4758,-4.4757,0,0,-4.4373,-4.44,-4.4449,-4.4475,-4.4515,-4.4529,-4.4541,-4.4579,-4.4592,-4.465,-4.4647,-4.4685,-4.4756,-4.4782,-4.4805,-4.4881,-4.4875,-4.4894,-4.4928,-4.4964,-4.4972,-4.4979,-4.5005,-4.5015,-4.49,-4.49,-4.49,0,-4.4396,-4.4462,-4.4474,-4.4521,-4.4547,-4.4545,-4.4595,-4.462,-4.467,-4.4687,-4.4673,-4.4763,-4.4787,-4.4857,-4.4876,-4.4895,-4.4908,-4.4888,-4.497,-4.4978,-4.4985,-4.5009,-4.5019,-4.4902,-4.4902,-4.4902,-4.4901,0,-4.4488,-4.4533,-4.4568,-4.4618,-4.4648,-4.4696,-4.4715,-4.4744,-4.4748,-4.4764,-4.4824,-4.4854,-4.4899,-4.4917,-4.4921,-4.4988,-4.4979,-4.4968,-4.4941,-4.4996,-4.502,-4.5029,-4.4905,-4.4904,-4.4904,-4.4903,0,0,-4.4561,-4.4618,-4.463,-4.4653,-4.4697,-4.4732,-4.4781,-4.4826,-4.485,-4.4886,-4.4926,-4.4987,-4.4977,-4.5003,-4.501,-4.5042,-4.5099,-4.5026,-4.5027,-4.5037,-4.5174,-4.5181,-4.5192,-4.5097,-4.5099,-4.51,-4.5171,0,-4.4628,-4.4713,-4.4727,-4.4802,-4.4843,-4.4844,-4.4886,-4.4918,-4.4935,-4.4972,-4.4991,-4.5033,-4.5018,-4.5033,-4.5065,-4.5085,-4.5126,-4.5081,-4.5133,-4.5134,-4.5121,-4.5204,-4.5211,-4.5276,-4.518,-4.5182,-4.5183,0,-4.4716,-4.4755,-4.4834,-4.4874,-4.4892,-4.4929,-4.4972,-4.5009,-4.5045,-4.5055,-4.5085,-4.5089,-4.5138,-4.5112,-4.518,-4.5149,-4.5172,-4.5185,-4.5188,-4.5191,-4.516,-4.5207,-4.5297,-4.5306,-4.5198,-4.5196,-4.5195,0,-4.4759,-4.4831,-4.4888,-4.4908,-4.4955,-4.4982,-4.5003,-4.5037,-4.5064,-4.5102,-4.5119,-4.5163,-4.5186,-4.5219,-4.5234,-4.5214,-4.5302,-4.5276,-4.531,-4.531,-4.5326,-4.5324,-4.5418,-4.5345,-4.5345,-4.5345,-4.5344,0,-4.4831,-4.4879,-4.4908,-4.4942,-4.4997,-4.5012,-4.5065,-4.5086,-4.5117,-4.5155,-4.5159,-4.5195,-4.5214,-4.5252,-4.5265,-4.5319,-4.533,-4.5339,-4.5341,-4.5337,-4.5336,-4.535,-4.5345,-4.5347,-4.5347,-4.5346,-4.5346,0,-4.4886,-4.4908,-4.497,-4.5011,-4.5022,-4.506,-4.5095,-4.5129,-4.5147,-4.5195,-4.5207,-4.5235,-4.5281,-4.53,-4.5357,-4.5365,-4.5427,-4.5427,-4.5414,-4.5414,-4.5447,-4.5443,-4.5551,-4.5565,-4.5484,-4.5485,-4.5486,0,-4.4929,-4.4966,-4.5012,-4.5039,-4.5061,-4.5103,-4.5131,-4.5149,-4.5177,-4.5222,-4.525,-4.5297,-4.5334,-4.5408,-4.5432,-4.5475,-4.5475,-4.551,-4.5481,-4.5476,-4.5473,-4.547,-4.5473,-4.5515,-4.5515,-4.5516,-4.5517,0,-4.5003,-4.5012,-4.5052,-4.5097,-4.513,-4.5166,-4.5201,-4.5222,-4.5245,-4.5277,-4.5325,-4.5354,-4.5412,-4.5458,-4.5503,-4.5524,-4.5524,-4.5526,-4.5536,-4.5531,-4.5521,-4.5525,-4.5426,-4.5523,-4.5522,-4.5522,-4.5521,-4.5521,-4.5052,-4.5085,-4.5122,-4.5167,-4.5196,-4.5229,-4.5262,-4.5285,-4.5325,-4.5374,-4.5383,-4.5433,-4.5469,-4.553,-4.5554,-4.5593,-4.5584,-4.5599,-4.5602,-4.5605,-4.5606,-4.5517,-4.5602,-4.5601,-4.5601,-4.5601,-4.5601,0,-4.5124,-4.5149,-4.519,-4.5239,-4.5275,-4.5274,-4.5313,-4.5342,-4.5386,-4.5421,-4.5458,-4.5513,-4.5558,-4.5587,-4.5632,-4.5658,-4.5659,-4.5669,-4.5666,-4.5671,-4.5612,-4.5598,-4.5668,-4.5668,-4.5668,-4.5668,-4.5668,-4.5668,-4.5165,-4.5221,-4.5235,-4.5305,-4.533,-4.5379,-4.5402,-4.5432,-4.5459,-4.5521,-4.5558,-4.5578,-4.561,-4.5658,-4.5699,-4.5706,-4.5722,-4.5732,-4.5739,-4.5682,-4.5675,-4.5668,-4.5655,-4.5736,-4.5736,-4.5794,-4.5795,-4.5795]},{"header":{"parameterUnit":"m.s-1","parameterCategory":1,"la1":30.2991,"la2":30.254,"lo1":-89.0895,"lo2":-89.0444,"dy":0.0017,"dx":0.0017,"nx":28,"ny":28,"refTime":"2026-02-15T03:00:00:Z","depth":0,"parameterNumber":3,"parameterNumberName":"V-component_of_WINDS"},"data":[0,0,0,0,0,0,0,0,0,0,0,0,0,0,0,0,0,0,0,0,0,0,0,0,0,0,0,0,0,0,0,0,0,0,0,0,0,0,0,0,0,0,0,0,0,0,0,0,0,0,0,0,0,0,0,0,0,0,2.1852,2.1852,0,2.1899,2.19,2.19,2.1943,2.1944,2.1944,2.1945,2.199,2.1991,2.1992,0,0,0,0,0,0,0,0,0,0,0,0,0,2.18,2.18,2.1852,2.1853,2.1853,2.1899,2.19,2.19,2.1943,2.1944,2.1944,2.1945,2.199,2.1991,2.1992,0,0,0,0,0,0,0,0,0,0,0,0,0,2.1832,2.1801,2.1852,2.188,2.1883,2.1899,2.19,2.1901,2.1943,2.1944,2.1944,2.1945,2.199,2.1991,2.1992,2.1983,0,0,2.1995,2.1996,0,0,0,0,0,0,0,0,2.183,2.1834,2.1875,2.1878,2.1882,2.1916,2.1898,2.1928,2.1943,2.192,2.1945,2.1946,2.1965,2.1968,2.1975,2.1985,2.1987,2.1995,2.1996,2.1996,2.1997,0,0,0,0,0,0,0,2.1828,2.1832,2.1871,2.1876,2.188,2.1891,2.1896,2.1904,2.1937,2.1922,2.1925,2.1931,2.1967,2.1974,2.1976,2.1987,2.1995,2.1996,2.1997,2.1997,2.1997,2.1996,0,0,0,0,0,0,2.1821,2.183,2.1869,2.1872,2.1857,2.1891,2.1897,2.1904,2.1937,2.1943,2.193,2.1932,2.1972,2.1975,2.1978,2.1973,2.1996,2.1997,2.1998,2.1998,2.1997,2.1996,0,0,0,0,0,0,2.182,2.1824,2.1867,2.1852,2.1858,2.1891,2.1899,2.1905,2.1912,2.1943,2.1949,2.1931,2.1972,2.1977,2.1982,2.1975,2.1998,2.1999,2.1998,2.1997,2.1996,2.1959,0,0,0,0,0,0,2.1818,2.1824,2.182,2.1852,2.1859,2.187,2.1898,2.1905,2.1914,2.1918,2.1946,2.1951,2.1973,2.1981,2.1984,2.1976,2.2,2.1999,2.1998,2.1997,2.1961,2.1957,2.1954,0,0,0,0,0,2.1816,2.1806,2.182,2.1824,2.1855,2.187,2.1874,2.19,2.1913,2.191,2.1931,2.195,2.1975,2.1981,2.1984,2.1978,2.2,2.1998,2.1997,2.1963,2.1958,2.1954,0,0,0,0,0,0,2.177,2.181,2.1826,2.1826,2.1844,2.1877,2.1874,2.1893,2.1907,2.191,2.1942,2.1948,2.1951,2.1965,2.197,2.1973,2.199,2.1989,2.1963,2.1959,2.1955,2.1952,2.2,0,0,0,0,0,2.1761,2.177,2.1804,2.18,2.1809,2.184,2.1847,2.1867,2.1887,2.1894,2.1915,2.1934,2.1946,2.1953,2.1966,2.1964,2.1972,2.1962,2.1958,2.1954,2.1953,2.1957,2.1953,2.1991,2.1991,2.1991,0,0,2.174,2.1763,2.1766,2.1792,2.1809,2.1818,2.1846,2.1853,2.1861,2.1895,2.1903,2.1919,2.1942,2.1945,2.1947,2.1957,2.1945,2.1952,2.1949,2.195,2.1955,2.1951,2.1948,2.199,2.199,2.1991,0,0,2.1707,2.1725,2.1725,2.1743,2.1769,2.179,2.179,2.1821,2.1834,2.1843,2.187,2.1879,2.1899,2.1915,2.1926,2.1905,2.1924,2.1908,2.1887,2.1891,2.1888,2.1885,2.188,2.1877,2.1907,2.1907,2.1907,0,2.1677,2.1693,2.1723,2.1731,2.1742,2.1776,2.1778,2.1793,2.1821,2.1829,2.1839,2.1868,2.1885,2.1894,2.189,2.1896,2.1899,2.1904,2.1886,2.1883,2.1882,2.1877,2.1874,2.1905,2.1905,2.1905,2.1905,0,2.1657,2.1667,2.1665,2.1694,2.1705,2.171,2.1742,2.175,2.1769,2.179,2.18,2.1823,2.1843,2.1846,2.1863,2.1859,2.1864,2.188,2.1898,2.1876,2.1872,2.187,2.1902,2.1903,2.1903,2.1904,0,0,2.1593,2.1643,2.1641,2.1657,2.169,2.1699,2.1706,2.1727,2.1735,2.1754,2.1762,2.178,2.1797,2.1809,2.1829,2.1832,2.1817,2.1847,2.1849,2.1842,2.1816,2.1805,2.1802,2.183,2.183,2.183,2.1815,0,2.1567,2.1583,2.1613,2.1619,2.1631,2.1665,2.1672,2.1694,2.1714,2.1727,2.175,2.1763,2.1782,2.179,2.1794,2.1818,2.1812,2.1819,2.1839,2.1839,2.1833,2.18,2.1787,2.1772,2.1813,2.1813,2.1813,0,2.1538,2.1558,2.1566,2.1603,2.1609,2.1614,2.1639,2.165,2.1677,2.1692,2.1708,2.1731,2.1742,2.1759,2.1776,2.178,2.179,2.1804,2.1804,2.1807,2.1825,2.1803,2.1767,2.1765,2.181,2.1811,2.1811,0,2.1494,2.1523,2.1533,2.1545,2.1586,2.159,2.1608,2.1635,2.1647,2.1668,2.1677,2.1698,2.171,2.1727,2.1756,2.1765,2.177,2.1789,2.1784,2.1783,2.1783,2.1783,2.1749,2.1788,2.1788,2.1788,2.1788,0,2.1462,2.1466,2.1514,2.152,2.1527,2.1562,2.1568,2.1588,2.1613,2.1625,2.1655,2.1665,2.1703,2.1718,2.1741,2.1753,2.1757,2.177,2.1776,2.1768,2.1767,2.1775,2.1777,2.1788,2.1788,2.1788,2.1788,0,2.1413,2.1445,2.1459,2.1499,2.151,2.1513,2.1548,2.1555,2.1579,2.1594,2.1599,2.1636,2.1656,2.1687,2.1714,2.173,2.1739,2.1748,2.173,2.1734,2.1728,2.1729,2.17,2.1699,2.1736,2.1736,2.1736,0,2.1391,2.1395,2.1438,2.1448,2.1466,2.1482,2.1496,2.1531,2.1544,2.1577,2.1582,2.1604,2.1624,2.1654,2.1683,2.1706,2.1717,2.1705,2.172,2.1713,2.1719,2.1719,2.172,2.1702,2.1701,2.1701,2.17,0,2.1349,2.1366,2.1385,2.1411,2.1427,2.1448,2.1471,2.1478,2.1519,2.1533,2.1554,2.157,2.1601,2.1623,2.1651,2.1669,2.1692,2.1696,2.1696,2.1688,2.1678,2.1685,2.1722,2.1696,2.1696,2.1697,2.1697,2.1697,2.1314,2.1321,2.1353,2.1374,2.1396,2.1418,2.1429,2.1455,2.1474,2.1503,2.1523,2.1544,2.1574,2.1614,2.1632,2.1649,2.1659,2.1658,2.1659,2.1658,2.1656,2.1675,2.1654,2.1654,2.1654,2.1654,2.1654,0,2.1275,2.1298,2.1318,2.1351,2.1368,2.139,2.1418,2.1431,2.145,2.1476,2.1496,2.1523,2.1546,2.1579,2.1605,2.1613,2.1624,2.1618,2.1618,2.1623,2.1645,2.1643,2.1609,2.1609,2.1609,2.1609,2.1609,2.1609,2.1257,2.1271,2.1293,2.1319,2.1343,2.1365,2.1379,2.14,2.1422,2.1451,2.1471,2.1493,2.1523,2.1552,2.1575,2.1584,2.1593,2.1584,2.1597,2.1617,2.1621,2.1625,2.1623,2.1586,2.1585,2.1573,2.1573,2.1573]}]]